Weather History for Baudette, MN

Change the Weather History Date:

Thursday, February 28, 2013

  Actual Average Record
Temperature  
Mean Temperature 19 °F -  
Max Temperature 26 °F 30 °F 49 °F (1932)
Min Temperature 12 °F 5 °F -42 °F (1962)
Degree Days  
Heating Degree Days 46    
Moisture  
Dew Point 11 °F    
Average Humidity 67    
Maximum Humidity 85    
Minimum Humidity 55    
Precipitation  
Precipitation 0.00 in - - ()
Sea Level Pressure  
Sea Level Pressure 30.34 in    
Wind  
Wind Speed 10 mph (NNE)    
Max Wind Speed 16 mph    
Max Gust Speed 23 mph    
Visibility 10 miles    
Events      
Averages and records for this station are not official NWS values.
T = Trace of Precipitation, MM = Missing Value Source: NWS Daily Summary

Daily Weather History Graph

Daily Weather History Graph

Search for Another Location

Airport:

Trip Planner

Search our weather history database for the weather conditions in past years. The results will help you decide how hot, cold, wet, or windy it might be!

Date:

Astronomy

Feb. 28, 2013 Rise Set
Actual Time 7:01 AM CST 6:00 PM CST
Civil Twilight 6:29 AM CST 6:32 PM CST
Nautical Twilight 5:53 AM CST 7:09 PM CST
Astronomical Twilight 5:17 AM CST 7:45 PM CST
Moon 9:51 PM CST (2/28) 7:52 AM CST (2/28)
Length of Visible Light 12h 02m
Length of Day
10h 59m
Waning Gibbous, 90% of the Moon is Illuminated
Feb 28
Waning Gibbous
Mar 4
Last Quarter
Mar 11
New
Mar 19
First Quarter
Mar 27
Full

Hourly Weather History & Observations

Time (CST) Temp. Windchill Dew Point Humidity Pressure Visibility Wind Dir Wind Speed Gust Speed Precip Events Conditions
12:53 AM 25.0 °F 12.2 °F 16.0 °F 69% 30.25 in 10.0 mi NE 16.1 mph 23.0 mph N/A   Overcast
1:53 AM 24.1 °F 12.0 °F 15.1 °F 69% 30.27 in 10.0 mi ENE 13.8 mph - N/A   Overcast
2:53 AM 23.0 °F 12.4 °F 14.0 °F 68% 30.27 in 10.0 mi NE 10.4 mph - N/A   Overcast
3:53 AM 21.0 °F 14.6 °F 12.9 °F 71% 30.28 in 10.0 mi ENE 4.6 mph - N/A   Overcast
4:34 AM 19.4 °F 8.6 °F 12.2 °F 74% 30.23 in 10.0 mi NE 9.2 mph - N/A   Scattered Clouds
4:53 AM 19.0 °F 9.0 °F 12.0 °F 74% 30.30 in 10.0 mi NE 8.1 mph - N/A   Clear
5:53 AM 17.1 °F 8.7 °F 10.0 °F 74% 30.32 in 10.0 mi NNE 5.8 mph - N/A   Clear
6:53 AM 15.1 °F 4.2 °F 9.0 °F 77% 30.34 in 10.0 mi NNE 8.1 mph - N/A   Clear
7:53 AM 12.2 °F 2.9 °F 8.6 °F 85% 30.29 in 10.0 mi North 5.8 mph - N/A   Clear
8:53 AM 15.1 °F 3.3 °F 8.1 °F 74% 30.36 in 10.0 mi NE 9.2 mph - N/A   Clear
9:53 AM 17.1 °F 7.6 °F 9.0 °F 71% 30.35 in 10.0 mi NE 6.9 mph - N/A   Clear
10:53 AM 19.9 °F 12.1 °F 10.0 °F 65% 30.36 in 10.0 mi North 5.8 mph - N/A   Clear
11:53 AM 21.9 °F 13.4 °F 10.0 °F 60% 30.36 in 10.0 mi NNE 6.9 mph - N/A   Clear
12:53 PM 23.0 °F 13.9 °F 12.0 °F 63% 30.35 in 10.0 mi North 8.1 mph - N/A   Clear
1:53 PM 24.1 °F 16.0 °F 10.9 °F 57% 30.34 in 10.0 mi NNW 6.9 mph - N/A   Clear
2:53 PM 26.1 °F 16.2 °F 12.9 °F 58% 30.33 in 10.0 mi North 10.4 mph - N/A   Clear
3:53 PM 26.1 °F 16.2 °F 12.0 °F 55% 30.34 in 10.0 mi North 10.4 mph - N/A   Clear
4:53 PM 25.0 °F 16.3 °F 12.0 °F 58% 30.34 in 10.0 mi North 8.1 mph - N/A   Clear
5:53 PM 21.9 °F 15.7 °F 10.0 °F 60% 30.36 in 10.0 mi NNE 4.6 mph - N/A   Clear
6:53 PM 21.0 °F 12.4 °F 9.0 °F 60% 30.38 in 10.0 mi NNE 6.9 mph - N/A   Clear
7:53 PM 21.0 °F 12.4 °F 9.0 °F 60% 30.39 in 10.0 mi NE 6.9 mph - N/A   Clear
8:53 PM 19.0 °F 11.1 °F 8.1 °F 62% 30.39 in 10.0 mi ENE 5.8 mph - N/A   Clear
9:53 PM 18.0 °F 9.8 °F 8.1 °F 65% 30.40 in 10.0 mi ENE 5.8 mph - N/A   Clear
10:53 PM 16.0 °F 6.3 °F 7.0 °F 68% 30.40 in 10.0 mi East 6.9 mph - N/A   Clear
11:53 PM 14.0 °F 6.5 °F 6.1 °F 71% 30.41 in 10.0 mi NE 4.6 mph - N/A   Clear